Location: Haliburton Scout Reserve
(45.0900°N, 78.3200°W)
Time: 18:26:25
(UTC-04:00)

STRAND 1 - Visible Passes

Search period start: 28 March 2023 00:00
Search period end: 07 April 2023 00:00
Orbit: 766 x 780 km, 98.4° (Epoch: 28 March)

Date Brightness Start Highest point End Pass type
(mag) Time Alt. Az. Time Alt. Az. Time Alt. Az.
28 Mar ? 06:29:05 10° SE 06:33:56 45° ENE 06:38:48 10° N visible
28 Mar ? 20:15:54 10° NNE 20:21:01 83° WNW 20:26:07 10° SSW visible
28 Mar ? 21:57:13 10° NNW 21:59:23 13° NW 22:01:32 10° W visible
29 Mar ? 05:55:47 10° ESE 05:59:48 24° ENE 06:03:49 10° N visible
29 Mar ? 21:21:25 10° N 21:25:25 24° WNW 21:29:24 10° WSW visible
30 Mar ? 05:23:40 10° E 05:25:50 13° NE 05:28:01 10° NNE visible
30 Mar ? 20:46:26 10° N 20:51:17 45° WNW 20:56:06 10° SW visible
31 Mar ? 06:25:07 10° SE 06:29:54 41° ENE 06:34:42 10° N visible
31 Mar ? 20:11:50 10° NNE 20:16:58 89° WNW 20:22:03 10° SSW visible
31 Mar ? 21:52:54 10° NNW 21:55:23 14° WNW 21:57:51 10° W visible
01 Apr ? 05:51:55 10° ESE 05:55:47 22° ENE 05:59:39 10° NNE visible
01 Apr ? 21:17:16 10° N 21:21:23 25° WNW 21:25:31 10° WSW visible
02 Apr ? 05:20:03 10° ENE 05:21:50 12° NE 05:23:38 10° NE visible
02 Apr ? 20:42:20 10° N 20:47:14 49° WNW 20:52:06 10° SW visible
03 Apr ? 06:21:09 10° SE 06:25:52 38° ENE 06:30:34 10° N visible
03 Apr ? 20:07:46 10° NNE 20:12:54 84° ESE 20:17:59 10° SSW visible
03 Apr ? 21:48:37 10° NNW 21:51:22 15° WNW 21:54:07 10° W visible
04 Apr ? 05:48:03 10° ESE 05:51:45 21° ENE 05:55:28 10° NNE visible
04 Apr ? 21:13:06 10° N 21:17:21 27° WNW 21:21:35 10° WSW visible
05 Apr ? 05:16:34 10° ENE 05:17:50 11° NE 05:19:06 10° NE visible
05 Apr ? 20:38:13 10° N 20:43:10 53° WNW 20:48:06 10° SW visible
06 Apr ? 06:17:11 10° SE 06:21:49 36° ENE 06:26:26 10° N visible
06 Apr ? 21:44:21 10° NNW 21:47:20 16° WNW 21:50:19 10° W visible
